Regional Weather Roundup
Issued by NWS Sioux Falls, SD

Home | Current Version | Previous Version | Graphics & Text | Print | Product List | Glossary On
Versions: 1 2 3 4 5 6 7 8 9 10 11 12 13 14 15 16 17 18 19 20 21 22 23 24 25 26 27 28 29 30 31 32 33 34 35 36 37 38 39 40 41 42 43 44 45 46 47 48 49 50
000
ASUS43 KFSD 211902
RWRFSD

WEATHER ROUNDUP FOR SE SOUTH DAKOTA/SW MINNESOTA/NW IOWA
NATIONAL WEATHER SERVICE SIOUX FALLS SD
200 PM CDT SUN SEP 21 2014

NOTE: "FAIR" INDICATES FEW OR NO CLOUDS BELOW 12,000 FEET WITH NO
SIGNIFICANT WEATHER AND OR OBSTRUCTIONS TO VISIBILITY.


SDZ038>040-050-052>070-212000-
SOUTHEAST SOUTH DAKOTA

CITY           SKY/WX    TMP DP  RH WIND       PRES   REMARKS
CHAMBERLAIN    SUNNY     70  42  36 NW8G21    30.28F
HURON          MOSUNNY   71  45  39 N16G25    30.26F
MADISON        MOCLDY    64  46  52 N13       30.25F
MITCHELL       MOSUNNY   71  45  39 N10G22    30.27F
SIOUX FALLS    MOSUNNY   70  45  40 N10G26    30.23F
WINNER         FAIR      72  40  31 NW9       30.30F
YANKTON        PTSUNNY   66  46  48 N15G21    30.25F
$$

MNZ071-072-080-081-089-090-097-098-212000-
SOUTHWEST MINNESOTA

CITY           SKY/WX    TMP DP  RH WIND       PRES   REMARKS
FAIRMONT       CLOUDY    64  45  48 NW14      30.18S
JACKSON        CLOUDY    64  46  52 NW18G24   30.20F
LUVERNE        PTSUNNY   68  43  40 N10G16    30.23F
MARSHALL       PTSUNNY   64  46  52 N17       30.21S
MONTEVIDEO     PTSUNNY   64  50  59 N17       30.23S
PIPESTONE      MOSUNNY   64  45  48 N9G18     30.23F
REDWOOD FALLS  PTSUNNY   63  50  62 N9        30.20S
TRACY          PTSUNNY   65  49  55 N15G21    30.22S
WINDOM         CLOUDY    64  48  55 N16       30.20F
WORTHINGTON    PTSUNNY   64  46  52 N16G24    30.22F
$$

IAZ001>003-012>014-020>022-031-032-NEZ013-014-SDZ071-212000-
NORTHWEST IOWA

CITY           SKY/WX    TMP DP  RH WIND       PRES   REMARKS
CHEROKEE       MOSUNNY   66  47  50 NW14G20   30.21S
DENISON        MOSUNNY   68  50  52 N14G24    30.18F
ESTHERVILLE    PTSUNNY   65  48  54 N15G23    30.18F
LE MARS        MOSUNNY   68  48  49 N10G18    30.23S
ORANGE CITY    MOSUNNY   68  45  42 N9G21     30.22F
SHELDON        MOSUNNY   68  46  45 N16       30.20F
SIOUX CITY     MOSUNNY   69  49  48 N15G21    30.23S
SPENCER        PTSUNNY   67  47  48 N16       30.20S
$$

ABBREVIATIONS USED IN REMARKS
   TC - TEMPERATURE IN CELSIUS
  WCI - WIND CHILL INDEX
   HX - HEAT INDEX
  VSB - VISIBILITY



USA.gov is the U.S. government's official web portal to all federal, state and local government web resources and services.